UAE241 OMDB-OOMS

Flight info

Callsign UAE241
Flight time 0h 43m
Altitude 25000
Route ANVIX L223 TARDI N629 MUSUK T511 MCT
Aircraft A339/H-SADE1E2E3GHIJ3J5M1P2RWXY/LB2D1

Departure

Time 2026-04-26 18:14
Airport Dubai International Airport (OMDB)

Arrival

Time 2026-04-26 18:57
Airport Muscat International Airport (OOMS)
Time Latitude Longitude Altitude Speed Heading
2026-04-26 17:47 25.25315 55.35498 29 ft 0 kts 211°
2026-04-26 17:57 25.25327 55.35506 29 ft 2 kts 211°
2026-04-26 17:57 25.25340 55.35515 29 ft 2 kts 211°
2026-04-26 17:57 25.25353 55.35524 29 ft 2 kts 211°
2026-04-26 17:57 25.25365 55.35532 29 ft 2 kts 211°
2026-04-26 17:58 25.25402 55.35544 29 ft 2 kts 157°
2026-04-26 17:59 25.25418 55.35529 29 ft 1 kts 120°
2026-04-26 17:59 25.25419 55.35527 29 ft 0 kts 120°
2026-04-26 18:02 25.25418 55.35529 29 ft 1 kts 120°
2026-04-26 18:02 25.25404 55.35556 29 ft 5 kts 120°
2026-04-26 18:02 25.25382 55.35597 29 ft 7 kts 120°
2026-04-26 18:03 25.25368 55.35652 29 ft 7 kts 67°
2026-04-26 18:03 25.25400 55.35693 29 ft 3 kts 23°
2026-04-26 18:03 25.25424 55.35682 29 ft 5 kts 317°
2026-04-26 18:03 25.25450 55.35647 29 ft 6 kts 300°
2026-04-26 18:04 25.25478 55.35600 29 ft 8 kts 307°
2026-04-26 18:04 25.25511 55.35544 29 ft 9 kts 302°
2026-04-26 18:04 25.25549 55.35478 29 ft 10 kts 302°
2026-04-26 18:05 25.25635 55.35323 29 ft 12 kts 300°
2026-04-26 18:05 25.25681 55.35236 29 ft 12 kts 303°
2026-04-26 18:05 25.25755 55.35215 29 ft 11 kts 14°
2026-04-26 18:05 25.25831 55.35260 29 ft 12 kts 31°
2026-04-26 18:06 25.25910 55.35314 29 ft 13 kts 32°
2026-04-26 18:06 25.25977 55.35390 29 ft 14 kts 62°
2026-04-26 18:06 25.25996 55.35496 29 ft 14 kts 99°
2026-04-26 18:06 25.25953 55.35597 29 ft 14 kts 121°
2026-04-26 18:07 25.25897 55.35697 29 ft 15 kts 121°
2026-04-26 18:07 25.25839 55.35802 29 ft 16 kts 121°
2026-04-26 18:07 25.25778 55.35910 29 ft 16 kts 122°
2026-04-26 18:07 25.25737 55.35984 30 ft 16 kts 120°
2026-04-26 18:08 25.25657 55.36131 31 ft 16 kts 121°
2026-04-26 18:08 25.25596 55.36241 31 ft 17 kts 122°
2026-04-26 18:08 25.25533 55.36354 32 ft 17 kts 121°
2026-04-26 18:08 25.25470 55.36465 33 ft 16 kts 122°
2026-04-26 18:09 25.25406 55.36576 33 ft 17 kts 122°
2026-04-26 18:09 25.25339 55.36689 33 ft 17 kts 119°
2026-04-26 18:09 25.25283 55.36802 34 ft 16 kts 120°
2026-04-26 18:09 25.25223 55.36911 35 ft 16 kts 121°
2026-04-26 18:10 25.25165 55.37019 36 ft 16 kts 121°
2026-04-26 18:10 25.25107 55.37124 38 ft 15 kts 121°
2026-04-26 18:10 25.25048 55.37229 39 ft 15 kts 121°
2026-04-26 18:10 25.24990 55.37333 40 ft 15 kts 121°
2026-04-26 18:11 25.24934 55.37434 41 ft 15 kts 121°
2026-04-26 18:11 25.24877 55.37535 42 ft 15 kts 121°
2026-04-26 18:11 25.24822 55.37637 43 ft 15 kts 121°
2026-04-26 18:11 25.24767 55.37738 44 ft 15 kts 121°
2026-04-26 18:12 25.24711 55.37839 45 ft 15 kts 121°
2026-04-26 18:12 25.24688 55.37944 45 ft 14 kts 59°
2026-04-26 18:12 25.24765 55.38003 45 ft 13 kts 17°
2026-04-26 18:12 25.24840 55.37976 45 ft 11 kts 297°
2026-04-26 18:13 25.24864 55.37931 45 ft 0 kts 301°
2026-04-26 18:13 25.24880 55.37902 45 ft 27 kts 301°
2026-04-26 18:13 25.25014 55.37649 44 ft 85 kts 301°
2026-04-26 18:14 25.25650 55.36471 108 ft 172 kts 298°
2026-04-26 18:14 25.26316 55.35241 634 ft 194 kts 300°
2026-04-26 18:14 25.27022 55.33958 1425 ft 204 kts 301°
2026-04-26 18:14 25.27742 55.32683 2440 ft 191 kts 302°
2026-04-26 18:15 25.28464 55.31407 2882 ft 205 kts 302°
2026-04-26 18:15 25.29121 55.29969 3342 ft 219 kts 283°
2026-04-26 18:15 25.29042 55.28284 3994 ft 228 kts 254°
2026-04-26 18:15 25.28392 55.26683 4658 ft 232 kts 249°
2026-04-26 18:16 25.27703 55.25088 5295 ft 235 kts 248°
2026-04-26 18:16 25.26294 55.21802 6599 ft 240 kts 248°
2026-04-26 18:16 25.25589 55.20147 7268 ft 241 kts 248°
2026-04-26 18:17 25.24848 55.18481 7917 ft 244 kts 240°
2026-04-26 18:17 25.23609 55.17183 8517 ft 255 kts 210°
2026-04-26 18:17 25.21852 55.16676 9018 ft 270 kts 182°
2026-04-26 18:17 25.19969 55.16892 9620 ft 280 kts 166°
2026-04-26 18:18 25.18245 55.17938 10171 ft 289 kts 137°
2026-04-26 18:18 25.17072 55.19754 10565 ft 303 kts 118°
2026-04-26 18:18 25.16091 55.21902 11007 ft 315 kts 117°
2026-04-26 18:18 25.15109 55.24070 11646 ft 319 kts 117°
2026-04-26 18:19 25.14106 55.26223 12331 ft 320 kts 118°
2026-04-26 18:19 25.13075 55.28393 13013 ft 322 kts 118°
2026-04-26 18:19 25.12021 55.30592 13680 ft 325 kts 118°
2026-04-26 18:19 25.10967 55.32793 14343 ft 328 kts 118°
2026-04-26 18:20 25.09993 55.35059 14987 ft 331 kts 116°
2026-04-26 18:20 25.09029 55.37394 15640 ft 334 kts 116°
2026-04-26 18:20 25.08070 55.39734 16285 ft 338 kts 116°
2026-04-26 18:20 25.07431 55.41291 16711 ft 340 kts 116°
2026-04-26 18:21 25.06156 55.44518 17314 ft 354 kts 115°
2026-04-26 18:21 25.05177 55.47078 17592 ft 370 kts 115°
2026-04-26 18:21 25.04151 55.49758 17855 ft 386 kts 115°
2026-04-26 18:21 25.03087 55.52526 18121 ft 401 kts 115°
2026-04-26 18:22 25.01881 55.55379 18442 ft 414 kts 118°
2026-04-26 18:22 25.00488 55.58173 18899 ft 421 kts 122°
2026-04-26 18:22 24.98990 55.60962 19512 ft 425 kts 122°
2026-04-26 18:22 24.97490 55.63731 20094 ft 429 kts 123°
2026-04-26 18:23 24.95944 55.66581 20647 ft 434 kts 123°
2026-04-26 18:23 24.94370 55.69418 21203 ft 438 kts 126°
2026-04-26 18:23 24.92644 55.72183 21740 ft 441 kts 128°
2026-04-26 18:23 24.90822 55.74943 22280 ft 445 kts 129°
2026-04-26 18:24 24.88990 55.77695 22797 ft 450 kts 129°
2026-04-26 18:24 24.87127 55.80492 23290 ft 454 kts 129°
2026-04-26 18:24 24.85242 55.83325 23778 ft 458 kts 129°
2026-04-26 18:24 24.83349 55.86166 24246 ft 462 kts 129°
2026-04-26 18:25 24.81428 55.89008 24689 ft 466 kts 129°
2026-04-26 18:25 24.79436 55.91824 24942 ft 467 kts 132°
2026-04-26 18:25 24.77306 55.94513 24958 ft 466 kts 135°
2026-04-26 18:25 24.75036 55.97055 24971 ft 464 kts 139°
2026-04-26 18:26 24.72688 55.99479 24985 ft 464 kts 140°
2026-04-26 18:26 24.70324 56.01895 24990 ft 464 kts 140°
2026-04-26 18:26 24.67953 56.04321 24993 ft 465 kts 140°
2026-04-26 18:26 24.65611 56.06726 24984 ft 465 kts 140°
2026-04-26 18:27 24.63244 56.09160 24981 ft 464 kts 140°
2026-04-26 18:27 24.60902 56.11572 24978 ft 464 kts 140°
2026-04-26 18:27 24.58556 56.13999 24983 ft 464 kts 138°
2026-04-26 18:27 24.56281 56.16562 24989 ft 465 kts 135°
2026-04-26 18:28 24.54147 56.19222 24998 ft 466 kts 133°
2026-04-26 18:28 24.52033 56.21916 25007 ft 465 kts 133°
2026-04-26 18:28 24.49928 56.24611 25020 ft 465 kts 133°
2026-04-26 18:28 24.47825 56.27297 25028 ft 465 kts 133°
2026-04-26 18:29 24.45729 56.29969 25018 ft 465 kts 133°
2026-04-26 18:29 24.43601 56.32678 25007 ft 465 kts 133°
2026-04-26 18:29 24.41492 56.35360 24987 ft 465 kts 133°
2026-04-26 18:29 24.39398 56.38020 24967 ft 465 kts 133°
2026-04-26 18:30 24.37290 56.40699 24948 ft 465 kts 133°
2026-04-26 18:30 24.35154 56.43409 24926 ft 465 kts 133°
2026-04-26 18:30 24.33043 56.46085 24910 ft 465 kts 133°
2026-04-26 18:30 24.30940 56.48758 24898 ft 466 kts 132°
2026-04-26 18:31 24.28909 56.51557 24879 ft 466 kts 128°
2026-04-26 18:31 24.27006 56.54400 24878 ft 466 kts 128°
2026-04-26 18:31 24.25094 56.57287 24872 ft 466 kts 128°
2026-04-26 18:31 24.23206 56.60141 24869 ft 465 kts 128°
2026-04-26 18:32 24.21305 56.63013 24861 ft 465 kts 128°
2026-04-26 18:32 24.19397 56.65889 24860 ft 465 kts 128°
2026-04-26 18:32 24.17493 56.68755 24860 ft 465 kts 128°
2026-04-26 18:32 24.15599 56.71604 24780 ft 465 kts 128°
2026-04-26 18:33 24.13698 56.74459 24248 ft 469 kts 128°
2026-04-26 18:33 24.11789 56.77328 23586 ft 469 kts 128°
2026-04-26 18:33 24.09874 56.80204 23101 ft 465 kts 128°
2026-04-26 18:33 24.07973 56.83056 22667 ft 459 kts 128°
2026-04-26 18:34 24.06116 56.85838 22241 ft 454 kts 128°
2026-04-26 18:34 24.04258 56.88618 21842 ft 448 kts 128°
2026-04-26 18:34 24.02420 56.91367 21460 ft 442 kts 128°
2026-04-26 18:34 24.00637 56.94031 21078 ft 437 kts 128°
2026-04-26 18:35 23.98855 56.96693 20699 ft 431 kts 128°
2026-04-26 18:35 23.97081 56.99343 20314 ft 426 kts 128°
2026-04-26 18:35 23.95345 57.01932 19969 ft 421 kts 128°
2026-04-26 18:35 23.93627 57.04494 19609 ft 416 kts 127°
2026-04-26 18:36 23.91933 57.07019 19244 ft 411 kts 127°
2026-04-26 18:36 23.90246 57.09533 18903 ft 407 kts 127°
2026-04-26 18:36 23.88579 57.12015 18524 ft 403 kts 127°
2026-04-26 18:36 23.86919 57.14485 18167 ft 399 kts 127°
2026-04-26 18:37 23.85302 57.16890 17845 ft 394 kts 127°
2026-04-26 18:37 23.83683 57.19299 17507 ft 391 kts 126°
2026-04-26 18:37 23.82080 57.21683 17158 ft 387 kts 126°
2026-04-26 18:37 23.80481 57.24062 16809 ft 384 kts 126°
2026-04-26 18:38 23.78914 57.26393 16454 ft 382 kts 126°
2026-04-26 18:38 23.77349 57.28719 16043 ft 380 kts 126°
2026-04-26 18:38 23.75793 57.31028 15681 ft 378 kts 126°
2026-04-26 18:38 23.74247 57.33321 15296 ft 376 kts 126°
2026-04-26 18:39 23.72881 57.35742 14899 ft 373 kts 115°
2026-04-26 18:39 23.71967 57.38371 14549 ft 371 kts 104°
2026-04-26 18:39 23.71461 57.41141 14183 ft 368 kts 98°
2026-04-26 18:39 23.71074 57.43890 13799 ft 367 kts 97°
2026-04-26 18:40 23.70702 57.46626 13420 ft 366 kts 97°
2026-04-26 18:40 23.70327 57.49355 13060 ft 363 kts 97°
2026-04-26 18:40 23.69945 57.52086 12695 ft 361 kts 97°
2026-04-26 18:40 23.69568 57.54755 12315 ft 360 kts 98°
2026-04-26 18:41 23.69182 57.57463 11910 ft 359 kts 98°
2026-04-26 18:41 23.68799 57.60129 11545 ft 358 kts 98°
2026-04-26 18:41 23.68409 57.62833 11129 ft 358 kts 98°
2026-04-26 18:41 23.68023 57.65506 10735 ft 357 kts 98°
2026-04-26 18:42 23.67639 57.68152 10434 ft 353 kts 99°
2026-04-26 18:42 23.67257 57.70773 10316 ft 342 kts 99°
2026-04-26 18:42 23.66891 57.73289 10229 ft 331 kts 99°
2026-04-26 18:42 23.66540 57.75694 10176 ft 320 kts 99°
2026-04-26 18:43 23.66194 57.78073 10099 ft 309 kts 99°
2026-04-26 18:43 23.65864 57.80336 10053 ft 299 kts 99°
2026-04-26 18:43 23.65540 57.82548 9912 ft 292 kts 99°
2026-04-26 18:43 23.65223 57.84721 9618 ft 292 kts 99°
2026-04-26 18:44 23.64904 57.86898 9329 ft 293 kts 100°
2026-04-26 18:44 23.64580 57.89099 9044 ft 292 kts 99°
2026-04-26 18:44 23.64256 57.91291 8768 ft 291 kts 99°
2026-04-26 18:44 23.63938 57.93438 8514 ft 290 kts 99°
2026-04-26 18:45 23.63617 57.95616 8244 ft 290 kts 99°
2026-04-26 18:45 23.63299 57.97772 7967 ft 289 kts 99°
2026-04-26 18:45 23.62979 57.99947 7706 ft 288 kts 98°
2026-04-26 18:45 23.62660 58.02109 7437 ft 287 kts 98°
2026-04-26 18:46 23.62345 58.04240 7174 ft 286 kts 98°
2026-04-26 18:46 23.62031 58.06358 6934 ft 284 kts 98°
2026-04-26 18:46 23.61717 58.08481 6679 ft 283 kts 97°
2026-04-26 18:46 23.61404 58.10593 6425 ft 282 kts 97°
2026-04-26 18:47 23.61091 58.12708 6158 ft 282 kts 97°
2026-04-26 18:47 23.60782 58.14791 5894 ft 281 kts 97°
2026-04-26 18:47 23.60470 58.16893 5626 ft 281 kts 96°
2026-04-26 18:47 23.60155 58.19014 5354 ft 281 kts 96°
2026-04-26 18:48 23.59840 58.21129 5089 ft 281 kts 97°
2026-04-26 18:48 23.59527 58.23242 4829 ft 280 kts 96°
2026-04-26 18:48 23.59263 58.25326 4563 ft 279 kts 91°
2026-04-26 18:48 23.59298 58.27437 4291 ft 277 kts 81°
2026-04-26 18:49 23.59557 58.29531 4019 ft 277 kts 78°
2026-04-26 18:49 23.59855 58.31603 3749 ft 277 kts 77°
2026-04-26 18:49 23.60152 58.33664 3486 ft 277 kts 78°
2026-04-26 18:49 23.60445 58.35731 3223 ft 278 kts 78°
2026-04-26 18:50 23.60736 58.37823 2959 ft 278 kts 78°
2026-04-26 18:50 23.61026 58.39925 2738 ft 276 kts 78°
2026-04-26 18:50 23.61299 58.41928 2707 ft 263 kts 78°
2026-04-26 18:50 23.61561 58.43853 2670 ft 245 kts 77°
2026-04-26 18:51 23.61811 58.45643 2648 ft 236 kts 77°
2026-04-26 18:51 23.62052 58.47367 2593 ft 227 kts 77°
2026-04-26 18:51 23.62286 58.49048 2555 ft 218 kts 77°
2026-04-26 18:51 23.62508 58.50628 2543 ft 206 kts 73°
2026-04-26 18:52 23.63113 58.51948 2516 ft 186 kts 35°
2026-04-26 18:52 23.64250 58.52493 2455 ft 177 kts 356°
2026-04-26 18:52 23.65371 58.52090 2386 ft 175 kts 317°
2026-04-26 18:52 23.65960 58.50930 2318 ft 180 kts 277°
2026-04-26 18:53 23.65668 58.49598 2285 ft 189 kts 237°
2026-04-26 18:53 23.64641 58.48684 2281 ft 195 kts 214°
2026-04-26 18:53 23.63574 58.47796 2260 ft 191 kts 233°
2026-04-26 18:53 23.62845 58.46611 2244 ft 187 kts 247°
2026-04-26 18:54 23.62352 58.45308 2217 ft 185 kts 258°
2026-04-26 18:54 23.62079 58.43956 2200 ft 183 kts 265°
2026-04-26 18:54 23.61929 58.42582 2190 ft 183 kts 268°
2026-04-26 18:54 23.61821 58.41184 1998 ft 185 kts 269°
2026-04-26 18:55 23.61718 58.39779 1785 ft 186 kts 269°
2026-04-26 18:55 23.61608 58.38399 1560 ft 179 kts 268°
2026-04-26 18:55 23.61500 58.37073 1334 ft 172 kts 268°
2026-04-26 18:55 23.61396 58.35807 1112 ft 166 kts 268°
2026-04-26 18:56 23.61297 58.34575 908 ft 159 kts 267°
2026-04-26 18:56 23.61200 58.33396 702 ft 153 kts 266°
2026-04-26 18:56 23.61098 58.32261 506 ft 147 kts 265°
2026-04-26 18:56 23.61009 58.31170 318 ft 141 kts 265°
2026-04-26 18:57 23.60928 58.30106 163 ft 141 kts 266°
2026-04-26 18:57 23.60879 58.29408 75 ft 138 kts 265°
2026-04-26 18:57 23.60778 58.28137 47 ft 100 kts 265°
2026-04-26 18:57 23.60733 58.27573 47 ft 48 kts 265°
2026-04-26 18:58 23.60702 58.27219 47 ft 45 kts 255°
2026-04-26 18:58 23.60601 58.26967 48 ft 20 kts 234°
2026-04-26 18:58 23.60518 58.26837 48 ft 20 kts 234°
2026-04-26 18:58 23.60481 58.26801 48 ft 0 kts 208°
2026-04-26 18:59 23.60475 58.26797 48 ft 6 kts 203°
2026-04-26 19:00 23.60428 58.26804 48 ft 7 kts 130°
2026-04-26 19:00 23.60415 58.26869 48 ft 8 kts 92°
2026-04-26 19:00 23.60422 58.26942 48 ft 10 kts 84°
2026-04-26 19:00 23.60430 58.27029 48 ft 13 kts 84°
2026-04-26 19:01 23.60438 58.27137 48 ft 14 kts 85°
2026-04-26 19:01 23.60447 58.27253 48 ft 15 kts 85°
2026-04-26 19:01 23.60456 58.27373 48 ft 16 kts 85°
2026-04-26 19:01 23.60466 58.27497 48 ft 16 kts 84°
2026-04-26 19:02 23.60477 58.27625 48 ft 17 kts 84°
2026-04-26 19:02 23.60488 58.27757 48 ft 17 kts 85°
2026-04-26 19:02 23.60499 58.27890 48 ft 17 kts 85°
2026-04-26 19:02 23.60506 58.27980 47 ft 18 kts 85°
2026-04-26 19:03 23.60519 58.28165 47 ft 18 kts 85°
2026-04-26 19:03 23.60529 58.28304 47 ft 18 kts 85°
2026-04-26 19:03 23.60510 58.28428 47 ft 16 kts 151°
2026-04-26 19:03 23.60423 58.28445 47 ft 0 kts 174°
2026-04-26 19:04 23.60404 58.28448 47 ft 5 kts 174°
2026-04-26 19:04 23.60353 58.28458 47 ft 6 kts 148°
2026-04-26 19:04 23.60337 58.28501 47 ft 7 kts 94°
2026-04-26 19:04 23.60338 58.28545 47 ft 5 kts 86°
2026-04-26 19:05 23.60340 58.28575 47 ft 0 kts 85°
2026-04-26 19:05 23.60340 58.28574 47 ft 0 kts 85°